Weather Roundup
Issued by NWS

Home | Current Version | Previous Version | Text Only | Print | Product List | Glossary On
Versions: 1 2 3 4 5 6 7 8 9 10 11 12 13 14 15 16 17 18 19 20 21 22 23 24 25 26 27 28 29 30 31 32 33 34 35 36 37 38 39 40 41 42 43 44 45 46 47 48 49 50
000
NZUS93 KARX 061810
HRRWXR

CURRENT HOURLY OBSERVATIONS ACROSS
MUCH OF THE UPPER MISSISSIPPI VALLEY
NATIONAL WEATHER SERVICE LA CROSSE WI
100 PM CDT MON JUL 06 2015


...SOUTHEAST MINNESOTA...


CITY           SKY/WX    TMP DP  RH WIND       PRES   REMARKS
ROCHESTER      CLOUDY    75  70  84 W10       29.84S
ROCHESTER/MAYO CLOUDY    74  72  93 W7        29.84S
WINONA         CLOUDY    77  68  73 SW6       29.81S
AUSTIN         CLOUDY    79  70  73 W15G21    29.84S
ALBERT LEA     RAIN      72  70  94 SW9       29.85S
DODGE CENTER   LGT RAIN  73  72  94 W15       29.84F
PRESTON        CLOUDY    72  67  83 W7        29.85S
OWATONNA       RAIN      70  66  88 NW20      29.86R
FARIBAULT      CLOUDY    68  66  94 N17G26    29.86R
$$

...ELSEWHERE IN MINNESOTA...


CITY           SKY/WX    TMP DP  RH WIND       PRES   REMARKS
MINNEAPOLIS    LGT RAIN  65  61  87 N18G30    29.89R FOG
INTNL FALLS    MOSUNNY   60  44  55 NW16G24   29.99R
DULUTH         LGT RAIN  62  58  86 N8        29.93R VSB 3/4
RED WING       RAIN      72  70  94 N17G29    29.81R
REDWOOD FALLS  CLOUDY    69  60  73 N13       29.95S HAZE
MANKATO        CLOUDY    64  61  88 N24G33    29.91R
WORTHINGTON    CLOUDY    70  61  73 N15G23    29.97R
FAIRMONT       CLOUDY    66  61  82 N20G29    29.91R
$$

...SOUTHWEST WISCONSIN...


CITY           SKY/WX    TMP DP  RH WIND       PRES   REMARKS
LA CROSSE      CLOUDY    77  69  76 SW8       29.81S
PRAIRIE DU CHI CLOUDY    75  67  76 SW5       29.84R
BOSCOBEL       CLOUDY    79  69  71 SW8       29.83F
LONE ROCK      CLOUDY    78  70  76 S9        29.82F
PLATTEVILLE    CLOUDY    75  72  88 SE13      29.84F
FORT MC COY    CLOUDY    77  67  72 S8        29.82F
CAMP DOUGLAS   MOSUNNY   79  77  94 S8        29.81F
VIROQUA        FAIR      76  68  74 S9        29.84F
WIS DELLS      CLOUDY    75  69  80 S12       29.83F
$$

...ELSEWHERE IN WISCONSIN...


CITY           SKY/WX    TMP DP  RH WIND       PRES   REMARKS
MILWAUKEE      CLOUDY    85  69  58 S15       29.89F
MADISON        CLOUDY    74  70  87 S7        29.84F
GREEN BAY      CLOUDY    79  71  76 SW12      29.84F HAZE
EAU CLAIRE     HVY RAIN  70  68  93 W10       29.79R FOG
BLACK RVR FLS  CLOUDY    76  70  81 SW6       29.81S
MEDFORD        CLOUDY    72  69  90 S8        29.82F
WAUSAU         CLOUDY    73  69  87 S9        29.82S
WIS RAPIDS     CLOUDY    78  70  76 S7        29.83F
MARSHFIELD     LGT RAIN  75  69  81 S9        29.83F
RICE LAKE      LGT RAIN  62  59  90 NW15G25   29.86R
$$

...NORTHEAST IOWA...


CITY           SKY/WX    TMP DP  RH WIND       PRES   REMARKS
DECORAH          N/A    N/A N/A N/A MISG        N/A
MASON CITY       N/A     78  71  79 W16       29.87R
CHARLES CITY   CLOUDY    75  73  94 SW14      29.85F
OELWEIN        CLOUDY    73  72  94 SW9       29.87R
$$

...ELSEWHERE IN IOWA...


CITY           SKY/WX    TMP DP  RH WIND       PRES   REMARKS
DES MOINES     LGT RAIN  78  72  81 S6        29.85F
IOWA CITY      LGT RAIN  74  72  93 S6        29.89F
FORT DODGE     CLOUDY    79  72  78 SW8       29.89R
$$

...NORTHERN ILLINOIS...


CITY           SKY/WX    TMP DP  RH WIND       PRES   REMARKS
CHICAGO-OHARE  CLOUDY    83  70  64 SW15      29.91F
CHICAGO-MIDWAY CLOUDY    86  68  54 S17G26    29.92F
MOLINE         CLOUDY    81  72  74 S10       29.89F
ROCKFORD       TSTM      72  70  93 SE8       29.93F
PEORIA         PTSUNNY   86  75  69 S12       29.94S HX  95
$$

NOTE: "FAIR" INDICATES FEW OR NO CLOUDS BELOW 12,000 FEET WITH NO
SIGNIFICANT WEATHER AND/OR OBSTRUCTIONS TO VISIBILITY. WIND
SPEEDS ARE IN MILES-PER-HOUR.



USA.gov is the U.S. government's official web portal to all federal, state and local government web resources and services.